Location: Recife
(8.0585°S, 34.8848°W)
Time: 10:39:43
(UTC-03:00)

Courier 1B Rocket - Pass Details

Date: 15 April 2026
Orbit: 920 x 1201 km, 28.2° (Epoch: 13 May)

Event Time Altitude Azimuth Distance (km) Brightness Sun altitude
Rises 10:28:59 0° 228° (SW) 3,927 7.9 68.1°
Reaches altitude 10° 10:32:52 10° 209° (SSW) 3,021 7.5 68.6°
Maximum altitude 10:37:35 17° 169° (S) 2,554 7.3 69.2°
Drops below altitude 10° 10:42:25 10° 130° (SE) 3,111 7.7 69.8°
Sets 10:46:30 0° 111° (ESE) 4,093 8.3 70.2°
